TimePDT,TemperatureF,Dew PointF,Humidity,Sea Level PressureIn,VisibilityMPH,Wind Direction,Wind SpeedMPH,Gust SpeedMPH,PrecipitationIn,Events,Conditions,WindDirDegrees,DateUTC
12:52 AM,41.0,24.1,51,30.10,10.0,West,6.9,-,N/A,,Clear,260,2013-04-12 07:52:00
1:52 AM,41.0,26.1,55,30.09,10.0,WSW,6.9,-,N/A,,Clear,250,2013-04-12 08:52:00
2:52 AM,39.0,25.0,57,30.07,10.0,West,4.6,-,N/A,,Clear,270,2013-04-12 09:52:00
3:52 AM,28.9,21.9,75,30.22,10.0,North,5.8,-,N/A,,Clear,350,2013-04-12 10:52:00
4:52 AM,28.0,21.0,75,30.24,10.0,NNE,4.6,-,N/A,,Clear,30,2013-04-12 11:52:00
5:52 AM,28.9,21.9,75,30.23,10.0,ENE,4.6,-,N/A,,Clear,60,2013-04-12 12:52:00
6:52 AM,30.9,24.1,76,30.07,10.0,Calm,Calm,-,N/A,,Clear,0,2013-04-12 13:52:00
7:52 AM,36.0,27.0,70,30.06,10.0,Calm,Calm,-,N/A,,Clear,0,2013-04-12 14:52:00
8:52 AM,41.0,30.0,65,30.06,10.0,NW,3.5,-,N/A,,Clear,320,2013-04-12 15:52:00
9:52 AM,44.1,30.0,58,30.03,10.0,Calm,Calm,-,N/A,,Clear,0,2013-04-12 16:52:00
10:52 AM,50.0,32.0,50,29.99,10.0,South,5.8,-,N/A,,Scattered Clouds,180,2013-04-12 17:52:00
11:52 AM,55.0,28.9,37,29.95,10.0,SSW,8.1,-,N/A,,Clear,210,2013-04-12 18:52:00
12:52 PM,57.0,30.0,36,29.91,10.0,South,10.4,-,N/A,,Scattered Clouds,180,2013-04-12 19:52:00
1:52 PM,55.9,30.0,37,29.87,10.0,SSW,5.8,-,N/A,,Mostly Cloudy,210,2013-04-12 20:52:00
2:52 PM,55.9,30.0,37,29.83,10.0,SSW,9.2,-,N/A,,Overcast,210,2013-04-12 21:52:00
3:52 PM,55.9,28.9,36,29.80,10.0,SW,12.7,25.3,N/A,,Overcast,230,2013-04-12 22:52:00
4:52 PM,55.0,30.9,40,29.77,10.0,SW,9.2,24.2,N/A,,Overcast,220,2013-04-12 23:52:00
5:52 PM,52.0,34.0,50,29.75,10.0,WSW,10.4,-,0.00,,Overcast,240,2013-04-13 00:52:00
6:52 PM,50.0,39.0,66,29.72,10.0,SSW,8.1,-,0.00,,Overcast,210,2013-04-13 01:52:00
7:52 PM,50.0,37.9,63,29.68,10.0,South,6.9,-,N/A,,Mostly Cloudy,170,2013-04-13 02:52:00
8:52 PM,46.9,39.0,74,29.65,10.0,SSW,9.2,-,N/A,,Clear,200,2013-04-13 03:52:00
9:52 PM,46.9,37.0,68,29.79,10.0,SSW,8.1,-,N/A,,Scattered Clouds,200,2013-04-13 04:52:00
10:52 PM,45.0,35.1,68,29.63,10.0,WSW,6.9,-,N/A,,Mostly Cloudy,250,2013-04-13 05:52:00
11:52 PM,44.1,34.0,68,29.62,10.0,West,4.6,-,N/A,,Partly Cloudy,260,2013-04-13 06:52:00